This is the latest recevied weather packets stored in our database for station/object WK7G. If no packets are shown the sender has not sent any weather packets the latest 10 day(s).
| Time | Temp. | Humidity | Pressure | Rain* | Wind** | Luminosity | Snow |
|---|---|---|---|---|---|---|---|
| 1777610984 | 1.67° C | 60% | 1014.1 hPa | 0 mm | - | 0 W/m² | - |
| 1777610679 | 1.11° C | 62% | 1014 hPa | 0 mm | - | 0 W/m² | - |
| 1777610378 | 1.11° C | 63% | 1013.9 hPa | 0 mm | - | 0 W/m² | - |
| 1777610074 | 1.11° C | 64% | 1014.1 hPa | 0 mm | - | 0 W/m² | - |
| 1777609772 | 1.11° C | 64% | 1013.6 hPa | 0 mm | - | 0 W/m² | - |
| 1777609468 | 1.11° C | 66% | 1014.2 hPa | 0 mm | - | 0 W/m² | - |
| 1777609166 | 1.67° C | 63% | 1014.1 hPa | 0 mm | - | 0 W/m² | - |
| 1777608863 | 1.67° C | 62% | 1013.9 hPa | 0 mm | - | 0 W/m² | - |
| 1777608560 | 1.67° C | 63% | 1013.7 hPa | 0 mm | - | 0 W/m² | - |
| 1777608257 | 1.67° C | 62% | 1013.5 hPa | 0 mm | - | 0 W/m² | - |
| 1777607955 | 2.22° C | 62% | 1013.5 hPa | 0 mm | - | 0 W/m² | - |
| 1777607650 | 2.78° C | 59% | 1013.4 hPa | 0 mm | - | 0 W/m² | - |
| 1777607347 | 2.78° C | 58% | 1013.3 hPa | 0 mm | - | 0 W/m² | - |
| 1777607043 | 2.78° C | 59% | 1013.6 hPa | 0 mm | - | 0 W/m² | - |
| 1777606738 | 2.78° C | 59% | 1013.4 hPa | 0 mm | - | 0 W/m² | - |
| 1777606433 | 3.33° C | 57% | 1013.5 hPa | 0 mm | - | 0 W/m² | - |
| 1777606128 | 2.78° C | 58% | 1013.4 hPa | 0 mm | - | 0 W/m² | - |
| 1777605826 | 3.33° C | 59% | 1013 hPa | 0 mm | - | 0 W/m² | - |
| 1777605525 | 2.78° C | 59% | 1013.4 hPa | 0 mm | - | 0 W/m² | - |
| 1777605221 | 2.22° C | 62% | 1013.1 hPa | 0 mm | - | 0 W/m² | - |
| 1777604917 | 3.33° C | 58% | 1012.9 hPa | 0 mm | - | 0 W/m² | - |
| 1777604612 | 5° C | 47% | 1013 hPa | 0 mm | - | 0 W/m² | - |
| 1777604309 | 5° C | 45% | 1012.7 hPa | 0 mm | - | 0 W/m² | - |
| 1777604004 | 5.56° C | 49% | 1012.5 hPa | 0 mm | - | 0 W/m² | - |
| 1777603701 | 5° C | 49% | 1012.7 hPa | 0 mm | - | 0 W/m² | - |
* Rain latest hour (hover to see other rain measurements)
** Current wind speed in m/s (hover to see current wind gust speed)